BREEZE-M DEB, 38884

Orbit data source: Space-Track

BREEZE-M DEB, 38884 is space debris in LEO originally from a launch on Mon, 06 Aug 2012 UTC launched from the Tyuratam Missile And Space Complex (TTMTR). Debris objects in space refer to the collection of defunct objects orbiting the Earth. Examples of debris include non-operational satellites, rocket bodies, and fragments generated from explosions, collisions, or faulty payload assembly.

Loading next visibility...
Identifier
38884, 2012-044R
Orbit
LEO
Country
Flag of CISCIS
Related business
Manufacturer
Khrunichev
Mission
Spacecraft
Bus & Motor
BRIZ, Unknown motor
Mass
Unknown
Launch date (UTC)
2012-08-06 (13 years ago)
Launch vehicle
Unknown
Launch site
Tyuratam Missile And Space Complex (TTMTR)
Object type
Payload
Rocket body
Debris
Shape & HBR
Unknown shape, 0.4 m
Radar Cross Section
Medium (>0.1 m² and <1 m²)

Expand to show TLE details & history
Last TLE update: 7 hours ago

TLE from 7 hours ago
0 BREEZE-M DEB
1 38884U 12044R   25299.78664770  .00024105  37946-5  54514-3 0  9992
2 38884  49.9847 147.5186 1926973 205.5728 143.6053 11.63763615515442
Epoch: 2025-10-26T18:52Z
TLE epoch observation values (Epoch: 2025-10-26T18:52:46.361Z)
Latitude
-0.00005°
Longitude
-171.07245°
Altitude
3,209.77 km
Speed
5.892 km/s
True Right ascension
09h 50m 04s
True Declination
0° 00' 00"
Sunlit
Object was in daylight at epoch
Visualization orbit readout
Latitude
Unknown
Longitude
Unknown
Altitude
Unknown
Speed
Unknown
Apparent Right ascension
Unknown
Apparent Declination
Unknown
Sunlit
N/A
Visualization observer readout
Local Sidereal Time
20:59:54
Azimuth
Unknown
Elevation
Unknown
Doppler factor
Unknown
Orbital elements
Apogee altitude
3,433.13 km
Perigee altitude
262.829 km
Semi-major axis
8,226.117 km
Eccentricity
0.1927
Inclination
49.9847°
RAAN
147.5186°
Arg. of periapsis
205.5728°
True anomaly
154.50545°
Mean anomaly
143.6053°
Eccentric anomaly
149.2503°
Mean motion
2.90905 °/min
Orbital period
123.75 mins
BSTAR
0.00054514
Loading maneuver chart data...
Computing Atmospheric mass density...

Documentation

Showing up to 5 results
|